Time,TemperatureF,DewpointF,PressureIn,WindDirection,WindDirectionDegrees,WindSpeedMPH,WindSpeedGustMPH,Humidity,HourlyPrecipIn,Conditions,Clouds,dailyrainin,SolarRadiationWatts/m^2,SoftwareType,DateUTC
2013-03-18 00:22:00,26.0,8.0,-100.00,NW,325,13.0,36.0,45,0.00,,,0.02,0.000000,,2013-03-18 06:22:00,
2013-03-18 00:32:00,26.0,8.0,-100.00,NW,325,13.0,36.0,45,0.00,,,0.02,0.000000,,2013-03-18 06:32:00,
2013-03-18 00:42:00,26.0,8.0,-100.00,NW,325,13.0,36.0,45,0.00,,,0.02,0.000000,,2013-03-18 06:42:00,
2013-03-18 01:12:00,25.0,6.0,-100.00,NW,310,10.0,19.0,44,0.00,,,0.02,0.000000,,2013-03-18 07:12:00,
2013-03-18 01:22:00,25.0,6.0,-100.00,NW,310,10.0,19.0,44,0.00,,,0.02,0.000000,,2013-03-18 07:22:00,
2013-03-18 01:32:00,25.0,6.0,-100.00,NW,310,10.0,19.0,44,0.00,,,0.02,0.000000,,2013-03-18 07:32:00,
2013-03-18 01:42:00,25.0,6.0,-100.00,NW,310,10.0,19.0,44,0.00,,,0.02,0.000000,,2013-03-18 07:42:00,
2013-03-18 02:12:00,24.0,5.0,-100.00,NW,317,13.0,21.0,43,0.00,,,0.02,0.000000,,2013-03-18 08:12:00,
2013-03-18 02:22:00,24.0,5.0,-100.00,NW,317,13.0,21.0,43,0.00,,,0.02,0.000000,,2013-03-18 08:22:00,
2013-03-18 02:32:00,24.0,5.0,-100.00,NW,317,13.0,21.0,43,0.00,,,0.02,0.000000,,2013-03-18 08:32:00,
2013-03-18 02:42:00,24.0,5.0,-100.00,NW,317,13.0,21.0,43,0.00,,,0.02,0.000000,,2013-03-18 08:42:00,
2013-03-18 03:22:00,22.0,5.0,-100.00,NW,316,13.0,23.0,47,0.00,,,0.02,0.000000,,2013-03-18 09:22:00,
2013-03-18 03:33:00,22.0,5.0,-100.00,NW,316,13.0,23.0,47,0.00,,,0.02,0.000000,,2013-03-18 09:33:00,
2013-03-18 03:42:00,22.0,5.0,-100.00,NW,316,13.0,23.0,47,0.00,,,0.02,0.000000,,2013-03-18 09:42:00,
2013-03-18 04:23:00,22.0,5.0,-100.00,NW,309,10.0,18.0,48,0.00,,,0.02,0.000000,,2013-03-18 10:23:00,
2013-03-18 04:33:00,22.0,5.0,-100.00,NW,309,10.0,18.0,48,0.00,,,0.02,0.000000,,2013-03-18 10:33:00,
2013-03-18 04:42:00,22.0,5.0,-100.00,NW,309,10.0,18.0,48,0.00,,,0.02,0.000000,,2013-03-18 10:42:00,
2013-03-18 05:12:00,22.0,6.0,-100.00,NW,315,9.0,18.0,49,0.00,,,0.02,0.000000,,2013-03-18 11:12:00,
2013-03-18 05:22:00,22.0,6.0,-100.00,NW,315,9.0,18.0,49,0.00,,,0.02,0.000000,,2013-03-18 11:22:00,
2013-03-18 05:32:00,22.0,6.0,-100.00,NW,315,9.0,18.0,49,0.00,,,0.02,0.000000,,2013-03-18 11:32:00,
2013-03-18 05:42:00,22.0,6.0,-100.00,NW,315,9.0,18.0,49,0.00,,,0.02,0.000000,,2013-03-18 11:42:00,
2013-03-18 06:12:00,21.0,5.0,-100.00,NW,314,13.0,20.0,50,0.00,,,0.02,0.000000,,2013-03-18 12:12:00,
2013-03-18 06:22:00,21.0,5.0,-100.00,NW,314,13.0,20.0,50,0.00,,,0.02,0.000000,,2013-03-18 12:22:00,
2013-03-18 06:32:00,21.0,5.0,-100.00,NW,314,13.0,20.0,50,0.00,,,0.02,0.000000,,2013-03-18 12:32:00,
2013-03-18 06:42:00,21.0,5.0,-100.00,NW,314,13.0,20.0,50,0.00,,,0.02,0.000000,,2013-03-18 12:42:00,
2013-03-18 07:22:00,21.0,5.0,-100.00,NW,315,12.0,22.0,49,0.00,,,-99.99,0.000000,,2013-03-18 13:22:00,
2013-03-18 07:32:00,21.0,5.0,-100.00,NW,315,12.0,22.0,49,0.00,,,-99.99,0.000000,,2013-03-18 13:32:00,
2013-03-18 07:42:00,21.0,5.0,-100.00,NW,315,12.0,22.0,49,0.00,,,-99.99,0.000000,,2013-03-18 13:42:00,
2013-03-18 08:12:00,21.0,4.0,-100.00,NW,310,10.0,18.0,48,0.00,,,0.02,8.000000,,2013-03-18 14:12:00,
2013-03-18 08:22:00,21.0,4.0,-100.00,NW,310,10.0,18.0,48,0.00,,,0.02,8.000000,,2013-03-18 14:22:00,
2013-03-18 08:32:00,21.0,4.0,-100.00,NW,310,10.0,18.0,48,0.00,,,0.02,8.000000,,2013-03-18 14:32:00,
2013-03-18 08:42:00,21.0,4.0,-100.00,NW,310,10.0,18.0,48,0.00,,,0.02,8.000000,,2013-03-18 14:42:00,
2013-03-18 09:12:00,23.0,7.0,-100.00,NW,319,12.0,19.0,49,0.00,,,0.02,126.000000,,2013-03-18 15:12:00,
2013-03-18 09:22:00,23.0,7.0,-100.00,NW,319,12.0,19.0,49,0.00,,,0.02,126.000000,,2013-03-18 15:22:00,
2013-03-18 09:33:00,23.0,7.0,-100.00,NW,319,12.0,19.0,49,0.00,,,0.02,126.000000,,2013-03-18 15:33:00,
2013-03-18 09:42:00,23.0,7.0,-100.00,NW,319,12.0,19.0,49,0.00,,,0.02,126.000000,,2013-03-18 15:42:00,
2013-03-18 10:22:00,26.0,11.0,-100.00,NNW,340,16.0,25.0,52,0.00,,,0.02,376.000000,,2013-03-18 16:22:00,
2013-03-18 10:32:00,26.0,11.0,-100.00,NNW,340,16.0,25.0,52,0.00,,,0.02,376.000000,,2013-03-18 16:32:00,
2013-03-18 10:42:00,26.0,11.0,-100.00,NNW,340,16.0,25.0,52,0.00,,,0.02,376.000000,,2013-03-18 16:42:00,
2013-03-18 11:12:00,28.0,10.0,-100.00,NW,320,10.0,23.0,46,0.00,,,0.00,371.000000,,2013-03-18 17:12:00,
2013-03-18 11:22:00,28.0,10.0,-100.00,NW,320,10.0,23.0,46,0.00,,,0.00,371.000000,,2013-03-18 17:22:00,
2013-03-18 11:32:00,28.0,10.0,-100.00,NW,320,10.0,23.0,46,0.00,,,0.00,371.000000,,2013-03-18 17:32:00,
2013-03-18 11:42:00,28.0,10.0,-100.00,NW,320,10.0,23.0,46,0.00,,,0.00,371.000000,,2013-03-18 17:42:00,
2013-03-18 12:22:00,33.0,12.0,-100.00,WNW,288,14.0,27.0,41,0.00,,,0.00,717.000000,,2013-03-18 18:22:00,
2013-03-18 12:32:00,33.0,12.0,-100.00,WNW,288,14.0,27.0,41,0.00,,,0.00,717.000000,,2013-03-18 18:32:00,
2013-03-18 12:42:00,33.0,12.0,-100.00,WNW,288,14.0,27.0,41,0.00,,,0.00,717.000000,,2013-03-18 18:42:00,
2013-03-18 13:22:00,34.0,11.0,-100.00,WNW,291,14.0,30.0,37,0.00,,,0.00,904.000000,,2013-03-18 19:22:00,
2013-03-18 13:32:00,34.0,11.0,-100.00,WNW,291,14.0,30.0,37,0.00,,,0.00,904.000000,,2013-03-18 19:32:00,
2013-03-18 13:42:00,34.0,11.0,-100.00,WNW,291,14.0,30.0,37,0.00,,,0.00,904.000000,,2013-03-18 19:42:00,
2013-03-18 14:22:00,36.0,11.0,-100.00,WNW,299,14.0,31.0,35,0.00,,,0.00,890.000000,,2013-03-18 20:22:00,
2013-03-18 14:32:00,36.0,11.0,-100.00,WNW,299,14.0,31.0,35,0.00,,,0.00,890.000000,,2013-03-18 20:32:00,
2013-03-18 14:42:00,36.0,11.0,-100.00,WNW,299,14.0,31.0,35,0.00,,,0.00,890.000000,,2013-03-18 20:42:00,
2013-03-18 15:12:00,34.0,7.0,-100.00,WNW,283,19.0,33.0,32,0.00,,,0.00,896.000000,,2013-03-18 21:12:00,
2013-03-18 15:22:00,34.0,7.0,-100.00,WNW,283,19.0,33.0,32,0.00,,,0.00,896.000000,,2013-03-18 21:22:00,
2013-03-18 15:32:00,34.0,7.0,-100.00,WNW,283,19.0,33.0,32,0.00,,,0.00,896.000000,,2013-03-18 21:32:00,
2013-03-18 15:42:00,34.0,7.0,-100.00,WNW,283,19.0,33.0,32,0.00,,,0.00,896.000000,,2013-03-18 21:42:00,
2013-03-18 16:13:00,36.0,9.0,-100.00,West,267,17.0,34.0,32,0.00,,,0.00,736.000000,,2013-03-18 22:13:00,
2013-03-18 16:22:00,36.0,9.0,-100.00,West,267,17.0,34.0,32,0.00,,,0.00,736.000000,,2013-03-18 22:22:00,
2013-03-18 16:33:00,36.0,9.0,-100.00,West,267,17.0,34.0,32,0.00,,,0.00,736.000000,,2013-03-18 22:33:00,
2013-03-18 16:42:00,36.0,9.0,-100.00,West,267,17.0,34.0,32,0.00,,,0.00,736.000000,,2013-03-18 22:42:00,
2013-03-18 17:12:00,34.0,9.0,-100.00,WNW,283,14.0,35.0,34,0.00,,,0.00,560.000000,,2013-03-18 23:12:00,
2013-03-18 17:22:00,34.0,9.0,-100.00,WNW,283,14.0,35.0,34,0.00,,,0.00,560.000000,,2013-03-18 23:22:00,
2013-03-18 17:32:00,34.0,9.0,-100.00,WNW,283,14.0,35.0,34,0.00,,,0.00,560.000000,,2013-03-18 23:32:00,
2013-03-18 17:42:00,34.0,9.0,-100.00,WNW,283,14.0,35.0,34,0.00,,,0.00,560.000000,,2013-03-18 23:42:00,
2013-03-18 18:12:00,37.0,9.0,-100.00,West,276,16.0,27.0,31,0.00,,,0.00,288.000000,,2013-03-19 00:12:00,
2013-03-18 18:22:00,37.0,9.0,-100.00,West,276,16.0,27.0,31,0.00,,,0.00,288.000000,,2013-03-19 00:22:00,
2013-03-18 18:32:00,37.0,9.0,-100.00,West,276,16.0,27.0,31,0.00,,,0.00,288.000000,,2013-03-19 00:32:00,
2013-03-18 18:42:00,37.0,9.0,-100.00,West,276,16.0,27.0,31,0.00,,,0.00,288.000000,,2013-03-19 00:42:00,
2013-03-18 19:12:00,33.0,6.0,-100.00,West,268,17.0,35.0,32,0.00,,,0.00,150.000000,,2013-03-19 01:12:00,
2013-03-18 19:22:00,33.0,6.0,-100.00,West,268,17.0,35.0,32,0.00,,,0.00,150.000000,,2013-03-19 01:22:00,
2013-03-18 19:32:00,33.0,6.0,-100.00,West,268,17.0,35.0,32,0.00,,,0.00,150.000000,,2013-03-19 01:32:00,
2013-03-18 19:42:00,33.0,6.0,-100.00,West,268,17.0,35.0,32,0.00,,,0.00,150.000000,,2013-03-19 01:42:00,
2013-03-18 20:12:00,33.0,6.0,-100.00,West,260,15.0,28.0,32,0.00,,,0.00,10.000000,,2013-03-19 02:12:00,
2013-03-18 20:22:00,33.0,6.0,-100.00,West,260,15.0,28.0,32,0.00,,,0.00,10.000000,,2013-03-19 02:22:00,
2013-03-18 20:32:00,33.0,6.0,-100.00,West,260,15.0,28.0,32,0.00,,,0.00,10.000000,,2013-03-19 02:32:00,
2013-03-18 20:42:00,33.0,6.0,-100.00,West,260,15.0,28.0,32,0.00,,,0.00,10.000000,,2013-03-19 02:42:00,
2013-03-18 21:12:00,32.0,6.0,-100.00,West,267,14.0,28.0,33,0.00,,,0.00,0.000000,,2013-03-19 03:12:00,
2013-03-18 21:22:00,32.0,6.0,-100.00,West,267,14.0,28.0,33,0.00,,,0.00,0.000000,,2013-03-19 03:22:00,
2013-03-18 21:32:00,32.0,6.0,-100.00,West,267,14.0,28.0,33,0.00,,,0.00,0.000000,,2013-03-19 03:32:00,
2013-03-18 21:42:00,32.0,6.0,-100.00,West,267,14.0,28.0,33,0.00,,,0.00,0.000000,,2013-03-19 03:42:00,
2013-03-18 22:13:00,33.0,6.0,-100.00,WNW,282,14.0,31.0,32,0.00,,,0.00,0.000000,,2013-03-19 04:13:00,
2013-03-18 22:23:00,33.0,6.0,-100.00,WNW,282,14.0,31.0,32,0.00,,,0.00,0.000000,,2013-03-19 04:23:00,
2013-03-18 22:33:00,33.0,6.0,-100.00,WNW,282,14.0,31.0,32,0.00,,,0.00,0.000000,,2013-03-19 04:33:00,
2013-03-18 22:42:00,33.0,6.0,-100.00,WNW,282,14.0,31.0,32,0.00,,,0.00,0.000000,,2013-03-19 04:42:00,
2013-03-18 23:22:00,30.0,10.0,-100.00,NW,309,20.0,29.0,42,0.00,,,0.00,0.000000,,2013-03-19 05:22:00,
2013-03-18 23:32:00,30.0,10.0,-100.00,NW,309,20.0,29.0,42,0.00,,,0.00,0.000000,,2013-03-19 05:32:00,
2013-03-18 23:42:00,30.0,10.0,-100.00,NW,309,20.0,29.0,42,0.00,,,0.00,0.000000,,2013-03-19 05:42:00,